Location: Beaver Meadows
(40.3729°N, 105.6140°W)
Time: 13:11:14
(UTC-06:00)

Iridium 67 - Visible Passes

Search period start: 29 May 2016 00:00
Search period end: 08 June 2016 00:00
Orbit: 776 x 779 km, 86.4° (Epoch: 29 May)

Date Brightness Start Highest point End Pass type
(mag) Time Alt. Az. Time Alt. Az. Time Alt. Az.
29 May 5.9 22:04:39 10° N 22:09:49 64° W 22:14:28 13° SSW visible
30 May 5.5 21:31:07 10° N 21:36:19 70° E 21:41:26 10° S visible
30 May 8.1 23:14:04 10° NW 23:16:20 13° WNW 23:18:37 10° WSW visible
31 May 6.2 20:57:51 10° NNE 21:02:41 37° E 21:07:29 10° SSE visible
31 May 7.6 22:39:03 10° NNW 22:43:09 24° W 22:47:14 10° SW visible
01 Jun 6.6 22:04:56 10° NNW 22:09:51 43° W 22:14:44 10° SSW visible
02 Jun 5.6 21:31:11 10° N 21:36:25 82° W 21:41:37 10° S visible
03 Jun 5.7 20:57:46 10° N 21:02:52 54° E 21:07:57 10° SSE visible
03 Jun 8.1 22:39:52 10° NW 22:43:04 17° W 22:46:16 10° WSW visible
04 Jun 7.3 22:05:20 10° NNW 22:09:50 30° W 22:14:19 10° SW visible
05 Jun 6.2 21:31:23 10° NNW 21:36:28 56° W 21:41:32 10° SSW visible
06 Jun 5.5 20:57:46 10° N 21:03:00 79° E 21:08:12 10° S visible
06 Jun 8.4 22:41:25 10° WNW 22:42:56 11° WNW 22:44:26 10° W visible
07 Jun 7.9 22:05:56 10° NNW 22:09:46 21° W 22:13:36 10° SW visible
